This is the latest recevied weather packets stored in our database for station/object KE8KMM. If no packets are shown the sender has not sent any weather packets the latest 10 day(s).
| Time | Temp. | Humidity | Pressure | Rain* | Wind** | Luminosity | Snow |
|---|---|---|---|---|---|---|---|
| 1777462024 | 12.22° C | 97% | 1009.2 hPa | 0 mm | - | 14 W/m² | - |
| 1777461721 | 12.22° C | 97% | 1009.3 hPa | 0 mm | - | 12 W/m² | - |
| 1777461415 | 12.22° C | 96% | 1009 hPa | 0 mm | - | 12 W/m² | - |
| 1777461112 | 12.22° C | 96% | 1008.8 hPa | 0 mm | - | 7 W/m² | - |
| 1777460808 | 11.67° C | 96% | 1009 hPa | 0 mm | - | 6 W/m² | - |
| 1777460503 | 12.22° C | 96% | 1008.9 hPa | 0 mm | - | 3 W/m² | - |
| 1777460200 | 12.22° C | 96% | 1009.4 hPa | 0 mm | - | 1 W/m² | - |
| 1777459897 | 12.22° C | 96% | 1008.8 hPa | 0 mm | - | 1 W/m² | - |
| 1777459594 | 12.22° C | 96% | 1008.9 hPa | 0 mm | - | 0 W/m² | - |
| 1777459291 | 12.22° C | 96% | 1009.3 hPa | 0 mm | - | 0 W/m² | - |
| 1777458989 | 12.22° C | 96% | 1009.5 hPa | 0 mm | - | 0 W/m² | - |
| 1777458686 | 12.22° C | 96% | 1009.5 hPa | 0 mm | - | 0 W/m² | - |
| 1777458382 | 12.22° C | 96% | 1009.4 hPa | 0 mm | - | 0 W/m² | - |
| 1777458078 | 12.22° C | 96% | 1009.6 hPa | 0 mm | - | 0 W/m² | - |
| 1777457774 | 12.22° C | 96% | 1010 hPa | 0 mm | - | 0 W/m² | - |
| 1777457474 | 12.22° C | 96% | 1010.1 hPa | 1.27 mm | - | 0 W/m² | - |
| 1777457170 | 12.22° C | 96% | 1010.2 hPa | 1.27 mm | - | 0 W/m² | - |
| 1777456866 | 12.22° C | 96% | 1010.4 hPa | 1.78 mm | - | 0 W/m² | - |
| 1777456560 | 12.22° C | 95% | 1010 hPa | 3.05 mm | - | 0 W/m² | - |
| 1777456256 | 12.22° C | 95% | 1009.7 hPa | 4.83 mm | - | 0 W/m² | - |
| 1777455952 | 12.22° C | 95% | 1009.8 hPa | 4.83 mm | - | 0 W/m² | - |
| 1777455649 | 12.22° C | 95% | 1010.2 hPa | 6.1 mm | - | 0 W/m² | - |
| 1777455345 | 12.22° C | 96% | 1010.2 hPa | 6.1 mm | - | 0 W/m² | - |
| 1777455043 | 12.22° C | 95% | 1010 hPa | 4.32 mm | - | 0 W/m² | - |
| 1777454739 | 12.78° C | 95% | 1010.2 hPa | 4.32 mm | - | 0 W/m² | - |
* Rain latest hour (hover to see other rain measurements)
** Current wind speed in m/s (hover to see current wind gust speed)